Regional Weather Roundup
Issued by NWS Midland/Odessa, TX

Skip options and go directly to product.
Home | Oldest Version | Previous Version | Current Version | All | Graphics & Text | Save Text | Print | Product List | Glossary On

Skip product version selection by date and time.   
333
ASUS44 KMAF 251210
RWRMAF
MIDLAND AREA WEATHER ROUNDUP
NATIONAL WEATHER SERVICE MIDLAND TX
600 AM CST SAT FEB 25 2017

...IN SOUTHWEST TEXAS AND SOUTHEAST NEW MEXICO...

CITY           SKY/WX    TMP DP  RH WIND       PRES   REMARKS
ALPINE         CLEAR     30   4  32 W7        30.15R WCI  23
ANDREWS        FAIR      29  20  68 E7        30.14S WCI  22
ARTESIA        CLEAR     32  16  51 SE8       30.14R WCI  25
BIG SPRING     CLEAR     32  23  67 NE7       30.18R WCI  26
CARLSBAD       CLEAR     34  19  54 E8        30.12R WCI  27
DRYDEN           N/A     44  26  49 N12       30.08R WCI  38
FORT STOCKTON  CLEAR     35  10  35 S7        30.09R WCI  29
GUAD PASS      CLEAR     34   5  29 E18         N/A  WCI  23
HOBBS          CLEAR     28  16  59 NE7       30.14R WCI  21
MARFA          CLOUDY    24   5  44 NW7       30.11R WCI  16
MIDLAND AIRPK  CLEAR     35  23  62 NE7       30.16R WCI  29
MIDLAND INTL   CLEAR     36  21  54 NE12      30.14R WCI  28
ODESSA         CLEAR     34  21  59 E10       30.14R WCI  26
PECOS          CLEAR     35  19  51 N5        30.12R WCI  31
PRESIDIO       FAIR      45   3  17 N7        30.08R
SEMINOLE       CLEAR     27  19  73 E6        30.16R WCI  20
SNYDER         CLEAR     31  22  67 NE6       30.18R WCI  25
WINK           CLEAR     32  21  64 N10       30.11R WCI  24
$$
...OTHER STATIONS IN TEXAS...

CITY           SKY/WX    TMP DP  RH WIND       PRES   REMARKS
ABILENE        PTCLDY    31  23  72 NE6       30.18R WCI  25
AMARILLO       CLEAR     20  15  81 CALM      30.12F
AUSTIN         CLEAR     46  28  49 N17       30.13R WCI  39
BROWNSVILLE    CLEAR     65  56  72 NE7       29.97R
CORPUS CHRISTI CLEAR     55  39  54 NE20      30.04R
DALLAS FTW     CLEAR     38  25  59 N10       30.17R WCI  31
DEL RIO        CLEAR     45  34  65 CALM      30.09R
EL PASO        CLEAR     45   5  19 NW5       30.06S
HOUSTON INT    CLEAR     49  34  56 N8        30.08R
LUBBOCK        CLEAR     26  18  71 NE3       30.14R
SAN ANGELO     CLEAR     37  27  67 NE12      30.16R WCI  29
SAN ANTONIO    CLEAR     48  30  49 N10       30.09R
WACO           CLEAR     37  27  67 N8        30.19R WCI  31
WICHITA FALLS  NOT AVBL
$$
...OTHER LOCATIONS IN NEW MEXICO...

CITY           SKY/WX    TMP DP  RH WIND       PRES   REMARKS
ALAMAGORDO     CLOUDY    30   7  37 SE3       30.07S
ALBUQUERQUE    CLEAR     24   2  38 CALM      30.08R
CANNON AFB     CLOUDY    21  17  84 NE6       30.11R WCI  13
CLOVIS         CLEAR     19  10  68 CALM      30.11R
HOLLOMAN AFB   CLOUDY    30  10  43 CALM      30.10R
ROSWELL        CLEAR     24   8  50 W6          N/A  WCI  17
RUIDOSO        CLOUDY    27   0  31 CALM      30.07S
SANTA FE       CLEAR     17   0  47 CALM      30.04R
TRUTH OR CONSE CLEAR     34  12  40 NW6       30.06R WCI  29
TUCUMCARI      CLEAR     16  10  77 N7        30.11R WCI   6
$$